Shi Jian 29B

operational
NORAD ID: 67403 Int'l Des: 2025-315 Owner: ZLZB Country: CN
HEOCIRCULARGSO

About Shi Jian 29B

Description loading...

Live Position

Loading 3D Globe...

Upcoming Passes

Altitude History

Altitude vs Time

uPlot chart will show altitude changes over time

Two-Line Element Set

1 67403U 25315C 26047.05416933 -.00000063 00000-0 00000+0 0 9995
2 67403 3.0891 98.2750 0002949 315.2851 185.1112 1.00272422 473
Epoch: Feb 16, 2026 • Age: 17 hours

Current Status

Altitude 35783.8 km
Velocity 3.07 km/s
Sub-Earth Point 1.84°N, 73.13°E
Launch Date Dec 30, 2025
Age 0.1 years
Type other

Technical Details

Classification Payload
Mass 1000.00 kg
Dry Mass 600.00 kg
Total Mass 1000.00 kg
Length 1.00 m
Diameter 1.50 m
Span 5.00 m
Shape Box + 2 Pan
Manufacturer SECM
Bus Type SJ29
Phase Status Attached in Orbit
Owner/State ZLZB/CN

Large Constellations

Loading constellations...